Regional Weather Roundup
Issued by NWS Goodland, KS

Home | Current Version | Previous Version | Text Only | Print | Product List | Glossary Off
Versions: 1 2 3 4 5 6 7 8 9 10 11 12 13 14 15 16 17 18 19 20 21 22 23 24 25 26 27 28 29 30 31 32 33 34 35 36 37 38 39 40 41 42 43 44 45 46 47 48 49 50

598
ASUS43 KGLD 291108
RWRGLD

GOODLAND FORECAST AREA HOURLY WEATHER ROUNDUP
NATIONAL WEATHER SERVICE GOODLAND KS
500 AM MDT FRI APR 29 2016

...OFFICIAL OBSERVATIONS...

CITY           SKY/WX    TMP DP  RH WIND       PRES   REMARKS
GOODLAND KS    CLOUDY    39  38  96 NE12      30.00F
HILL CITY KS   LGT RAIN  45  43  93 NE13      30.03F
IMPERIAL NEB   CLOUDY    41  38  89 NE6       30.07F
MCCOOK NEB     CLOUDY    43  41  93 E8        30.06F
AKRON CO       LGT RAIN  35  34  96 E8        30.04F
BURLINGTON CO  MIX PCPN  37  35  92 NE14      29.99F
LIMON CO       CLOUDY    32  32 100 NE6       29.99F
$$

...UNOFFICIAL OBSERVATIONS...

CITY           SKY/WX    TMP DP  RH WIND       PRES   REMARKS
COLBY KS       DRIZZLE   43  43 100 NE14      30.02F
GOVE KS          N/A     44  32  63 MISG        N/A
LENORA KS        N/A     43  32  65 MISG        N/A
NORTON KS      CLOUDY    43  37  81 NE13      30.02F
SHARON SPRINGS   N/A     41  40  95 NE14G26     N/A
TRIBUNE KS     CLOUDY    43  41  93 NE18      29.97S
KIT CARSON CO    N/A     35  32  89 MISG        N/A
YUMA CO          N/A     37  35  93 E7          N/A
$$




USA.gov is the U.S. government's official web portal to all federal, state and local government web resources and services.